Frederick, MD

12:43 AM EST on November 19, 2017 (GMT -0500)
Frederick Municipal

Weather History for KFDK - December, 2012

Change the Weather History Date:

Sunday, December 2, 2012

  Actual Average (KHGR) Record (KHGR)
Temperature  
Mean Temperature 40 °F -  
Max Temperature 51 °F 45 °F 64 °F (1998)
Min Temperature 30 °F 31 °F 21 °F (2000)
Degree Days  
Heating Degree Days 24    
Moisture  
Dew Point 39 °F    
Average Humidity 95    
Maximum Humidity 100    
Minimum Humidity 62    
Precipitation  
Precipitation 0.00 in - - ()
Sea Level Pressure  
Sea Level Pressure 30.29 in    
Wind  
Wind Speed 1 mph (WSW)    
Max Wind Speed 6 mph    
Max Gust Speed -    
Visibility 3 miles    
Events Fog , Snow    
Averages and records for this station are not official NWS values.
T = Trace of Precipitation, MM = Missing Value Source: NWS Daily Summary

Daily Weather History Graph

Daily Weather History Graph

Search for Another Location

Airport or City:

Trip Planner

Search our weather history database for the weather conditions in past years. The results will help you decide how hot, cold, wet, or windy it might be!

Date:

Astronomy

Dec. 02, 2012 Rise Set
Actual Time 7:11 AM EST 4:46 PM EST
Civil Twilight 6:42 AM EST 5:15 PM EST
Nautical Twilight 6:08 AM EST 5:49 PM EST
Astronomical Twilight 5:36 AM EST 6:21 PM EST
Moon 8:31 PM EST (12/2) 10:00 AM EST (12/2)
Length of Visible Light 10h 33m
Length of Day
9h 34m
Waning Gibbous, 86% of the Moon is Illuminated
Dec 2
Waning Gibbous
Dec 6
Last Quarter
Dec 13
New
Dec 20
First Quarter
Dec 28
Full

Hourly Weather History & Observations

Time (EST) Temp. Windchill Dew Point Humidity Pressure Visibility Wind Dir Wind Speed Gust Speed Precip Events Conditions
12:05 AM 30.2 °F 26.7 °F 30.2 °F 100% 30.43 in 1.0 mi North 3.5 mph - N/A   Overcast
12:25 AM 32.0 °F - 32.0 °F 100% 30.43 in 0.8 mi Calm Calm - N/A   Overcast
12:45 AM 32.0 °F - 32.0 °F 100% 30.43 in 0.2 mi Calm Calm - N/A Fog Fog
1:10 AM 32.0 °F - 32.0 °F 100% 30.42 in 0.2 mi Calm Calm - N/A Fog Fog
1:30 AM 33.8 °F - 33.8 °F 100% 30.41 in 0.2 mi Calm Calm - N/A Fog Fog
1:50 AM 33.8 °F - 33.8 °F 100% 30.42 in 0.2 mi Calm Calm - N/A Fog Fog
2:10 AM 33.8 °F - 33.8 °F 100% 30.42 in 0.2 mi Calm Calm - N/A Fog Fog
2:35 AM 33.8 °F - 33.8 °F 100% 30.42 in 0.2 mi Calm Calm - N/A Fog Fog
2:55 AM 33.8 °F - 33.8 °F 100% 30.41 in 0.2 mi Calm Calm - N/A Fog Fog
3:15 AM 33.8 °F - 33.8 °F 100% 30.40 in 0.2 mi Calm Calm - N/A Fog Fog
3:35 AM 33.8 °F - 33.8 °F 100% 30.40 in 0.2 mi Calm Calm - N/A Snow Light Snow
4:00 AM 33.8 °F - 33.8 °F 100% 30.39 in 0.2 mi Calm Calm - N/A Fog Fog
4:20 AM 33.8 °F - 33.8 °F 100% 30.39 in 0.2 mi Calm Calm - N/A Fog Fog
4:40 AM 33.8 °F - 33.8 °F 100% 30.39 in 0.2 mi Calm Calm - N/A Fog Fog
5:00 AM 33.8 °F - 33.8 °F 100% 30.38 in 0.2 mi Calm Calm - N/A Fog Fog
5:25 AM 35.6 °F - 35.6 °F 100% 30.38 in 0.2 mi Calm Calm - N/A Fog Fog
5:45 AM 35.6 °F - 35.6 °F 100% 30.38 in 0.2 mi Calm Calm - N/A Fog Fog
5:50 AM 35.6 °F - 35.6 °F 100% 30.38 in 0.2 mi Calm Calm - N/A Fog Fog
7:59 AM 35.6 °F - 35.6 °F 100% 30.37 in 0.2 mi Calm Calm - N/A Fog Fog
8:50 AM 37.4 °F - 37.4 °F 100% 30.36 in 0.8 mi Calm Calm - N/A Fog Fog
9:55 AM 37.4 °F 34.9 °F 37.4 °F 100% 30.36 in 0.8 mi WSW 3.5 mph - N/A Fog Fog
10:55 AM 39.2 °F 35.9 °F 39.2 °F 100% 30.32 in 0.8 mi SSW 4.6 mph - N/A Fog Fog
11:45 AM 41.0 °F 38.0 °F 41.0 °F 100% 30.30 in 0.8 mi West 4.6 mph - N/A Fog Fog
12:46 PM 46.4 °F 44.3 °F 42.8 °F 87% 30.24 in 3.0 mi West 4.6 mph - N/A   Clear
1:53 PM 51.8 °F - 44.6 °F 76% 30.19 in 3.0 mi Calm Calm - N/A   Haze
2:55 PM 51.8 °F - 44.6 °F 76% 30.18 in 3.0 mi WSW 5.8 mph - N/A   Haze
3:50 PM 50.0 °F - 44.6 °F 82% 30.16 in 4.0 mi South 3.5 mph - N/A   Haze
4:52 PM 48.2 °F - 44.6 °F 87% 30.16 in 7.0 mi Calm Calm - N/A   Haze
5:50 PM 46.4 °F - 44.6 °F 93% 30.16 in 7.0 mi Calm Calm - N/A   Mostly Cloudy
6:46 PM 48.2 °F - 46.4 °F 93% 30.17 in 5.0 mi Calm Calm - N/A   Overcast
7:50 PM 48.2 °F - 35.6 °F 62% 30.17 in 5.0 mi Calm Calm - N/A   Overcast
7:55 PM 46.4 °F - 44.6 °F 93% 30.17 in 5.0 mi Calm Calm - N/A   Overcast
8:15 PM 46.4 °F - 44.6 °F 93% 30.17 in 5.0 mi Calm Calm - N/A   Overcast
8:35 PM 46.4 °F - 44.6 °F 93% 30.17 in 5.0 mi Calm Calm - N/A   Overcast
9:00 PM 46.4 °F - 44.6 °F 93% 30.17 in 5.0 mi Calm Calm - N/A   Overcast
9:20 PM 48.2 °F - 44.6 °F 87% 30.17 in 7.0 mi Calm Calm - N/A   Overcast
9:40 PM 46.4 °F - 44.6 °F 93% 30.18 in 5.0 mi Calm Calm - N/A   Overcast
10:00 PM 46.4 °F - 44.6 °F 93% 30.18 in 5.0 mi Calm Calm - N/A   Overcast
10:25 PM 46.4 °F - 44.6 °F 93% 30.18 in 5.0 mi Calm Calm - N/A   Overcast
10:45 PM 46.4 °F - 44.6 °F 93% 30.18 in 5.0 mi Calm Calm - N/A   Overcast
11:05 PM 46.4 °F - 44.6 °F 93% 30.18 in 7.0 mi Calm Calm - N/A   Overcast
11:25 PM 46.4 °F - 44.6 °F 93% 30.18 in 7.0 mi Calm Calm - N/A   Overcast
11:50 PM 46.4 °F - 44.6 °F 93% 30.17 in 7.0 mi Calm Calm - N/A   Scattered Clouds